Weather Roundup
Issued by NWS Chicago, IL

Home | Current Version | Previous Version | Graphics & Text | Print | Product List | Glossary On
Versions: 1 2 3 4 5 6 7 8 9 10 11 12 13 14 15 16 17 18 19 20 21 22 23 24 25 26 27 28 29 30 31 32 33 34 35 36 37 38 39 40 41 42 43 44 45 46 47 48 49 50
000
NZUS59 KLOT 170206
HRRLOT

CHICAGO AREA WEATHER ROUNDUP
NATIONAL WEATHER SERVICE CHICAGO/ROMEOVILLE IL
900 PM CDT WED APR 16 2014

NOTE: "FAIR" INDICATES FEW OR NO CLOUDS BELOW 12,000 FEET WITH NO
SIGNIFICANT WEATHER AND/OR OBSTRUCTIONS TO VISIBILITY.

* THESE STATIONS ARE NOT UNDER NWS QUALITY CONTROL. THEY ALSO MAY NOT
  REPORT WEATHER SUCH AS PRECIPITATION OR FOG.

ILZ005-006-012>014-019>023-170300-
NORTHEAST ILLINOIS

CITY           SKY/WX    TMP DP  RH WIND       PRES   REMARKS
OHARE          CLOUDY    47  23  38 SE22      30.13S
MIDWAY         MOCLDY    48  24  39 SE17G26   30.16R
AURORA         PTCLDY    46  26  45 SE18      30.11R
LANSING*       PTCLDY    46  23  41 SE13G22   30.17R
JOLIET*        PTCLDY    45  26  47 SE10G18   30.14S
WAUKEGAN       CLOUDY    41  29  62 SE16      30.12F
DUPAGE AIRPORT PTCLDY    47  23  38 SE17G28   30.11S
WHEELING       CLOUDY    48  24  39 SE17G25   30.14S
KANKAKEE*      PTCLDY    45  28  50 SE13      30.16S
MORRIS*        PTCLDY    47  23  39 SE15      30.11S
NORTHERLY IS     N/A     45  33  63 SE16        N/A
$$

WIZ051-052-058>065-066-070>072-170300-
SOUTHEAST WISCONSIN

CITY           SKY/WX    TMP DP  RH WIND       PRES   REMARKS
MILWAUKEE      CLOUDY    42  28  57 SE24G32   30.13F
KENOSHA*       CLOUDY    43  28  55 SE17G26   30.12F
RACINE*        CLOUDY    41  29  62 SE22G33   30.15F
BURLINGTON     CLOUDY    42  28  55 SW14G22   30.10R
WAUKESHA       CLOUDY    41  25  52 SE17G24   30.12S
$$

INZ001>003-010>013-019-020-170300-
NORTHWEST INDIANA

CITY           SKY/WX    TMP DP  RH WIND       PRES   REMARKS
GARY*          NOT AVBL
MICHIGAN CITY* NOT AVBL
RENSSELAER*    NOT AVBL
VALPARAISO     PTCLDY    43  23  45 SE12      30.20R
$$

LMZ740>746-170300-
SOUTHERN LAKE MICHIGAN

STATION/POSITION TIME  SKY/WX   TEMP WIND        PRES    VSBY
                                AIR  DIR/SP/G
                 (UTC)          (F)  (DEG/KT/KT) (MB)    (MI)
HARRISON CRIB    0200            45  130/ 22/ 26   N/A
BURNHAM HARBOR   0200            45  130/ 16/ 20   N/A
CALUMET HARBOR   0200            47  120/ 14/ 19 1021.9F
BURNS HARBOR     NOT AVBL
MICHIGAN CITY    0200            46  110/ 11/ 16   N/A
$$

ABBREVIATIONS USED IN REMARKS
   TC - TEMPERATURE IN CELSIUS
  WCI - WIND CHILL INDEX
   HX - HEAT INDEX
  VSB - VISIBILITY
$$


USA.gov is the U.S. government's official web portal to all federal, state and local government web resources and services.